Tracking 28052 objects as of 25-Sep-2023
HD Live streaming from Space Station
objects crossing your sky now

STARLINK-4784

Track STARLINK-4784 now!
10-day predictions
STARLINK-4784 is classified as:


NORAD ID: 53839
Int'l Code: 2022-114X
Perigee: 545.9 km
Apogee: 547.9 km
Inclination: 53.2 °
Period: 95.4 minutes
Semi major axis: 6917 km
RCS: Unknown
Launch date: September 19, 2022
Source: United States (US)
Launch site: AIR FORCE EASTERN TEST RANGE (AFETR)
Your satellite tracking list
Your tracking list is empty




NASA's NSSDC Master Catalog

Two Line Element Set (TLE):
1 53839U 22114X   23267.50444783 -.00000898  00000-0 -38343-4 0  9995
2 53839  53.2186   1.9888 0001400  87.3024 272.8128 15.08837146 57520
Source of the keplerian elements: AFSPC